Regional Weather Roundup
Issued by NWS State College, PA

Home | Current Version | Previous Version | Text Only | Print | Product List | Glossary On
Versions: 1 2 3 4 5 6 7 8 9 10 11 12 13 14 15 16 17 18 19 20 21 22 23 24 25 26 27 28 29 30 31 32 33 34 35 36 37 38 39 40 41 42 43 44 45 46 47 48 49 50
000
ASUS41 KCTP 210703
RWRCTP

REGIONAL WEATHER ROUNDUP
NATIONAL WEATHER SERVICE STATE COLLEGE PA
300 AM EDT THU AUG 21 2014

Note: "fair" indicates few or no clouds below 12,000 feet with no
significant weather and/or obstructions to visibility.

* = STATION THAT DOES NOT REPORT PRECIPITATION /E.G. RAIN...SNOW...ETC/
    THUNDER OR FOG.

PAZ002>004-007>009-013>016-020>023-029>032-210800-
WESTERN PENNSYLVANIA

CITY           SKY/WX    TMP DP  RH WIND       PRES   REMARKS
ERIE           PTCLDY    69  64  84 S5        29.95S
MEADVILLE      CLEAR     66  64  93 S5        29.99F
FRANKLIN*      CLEAR     64  63  94 SW6       30.01F
NEW CASTLE     NOT AVBL
BEAVER COUNTY  NOT AVBL
BUTLER*        CLEAR     64  63  94 CALM      30.02S
PITTSBURGH INT CLEAR     67  65  93 CALM      30.00S
PITTSBURGH     CLEAR     66  63  90 S7        30.00F FOG
INDIANA*       CLOUDY    68  66  94 CALM      30.06S
LATROBE        MOCLDY    66  66 100 CALM      30.03S
WASHINGTON CO* CLOUDY    63  61  94 CALM      30.02S VSB 1/2
$$

PAZ004>006-010>012-017>019-024>028-033>037-041-042-045-046-049>053-210800-
CENTRAL PENNSYLVANIA

CITY           SKY/WX    TMP DP  RH WIND       PRES   REMARKS
BRADFORD       MOCLDY    65  62  90 SW5       30.02F
DUBOIS         PTCLDY    65  65 100 CALM      30.02S FOG
CLEARFIELD     FOG       64  64 100 CALM      30.03S VSB 1/4
JOHNSTOWN      PTCLDY    65  62  90 SW5       30.05F
ALTOONA        MOCLDY    67  66  97 SW3       30.02F
STATE COLLEGE  CLOUDY    68  67  98 CALM      30.02S
WILLIAMSPORT   CLOUDY    69  66  90 E7        29.97F
SELINSGROVE    CLOUDY    69  66  90 S3        30.00S FOG
FT INDIANTOWN  PTCLDY    64  64 100 N2        30.03R FOG
CAPITAL CITY   CLEAR     65  64  97 CALM      30.01S
HARRISBURG     PTCLDY    70  66  87 CALM      30.00S
YORK           CLEAR     62  61  96 CALM      30.01S FOG
$$

PAZ038>040-043-044-047-048-054-055-060>062-067>071-210800-
EASTERN PENNSYLVANIA

CITY           SKY/WX    TMP DP  RH WIND       PRES   REMARKS
SCRANTON       MOCLDY    70  63  78 S3        30.01F
MOUNT POCONO   CLOUDY    65  61  87 S6        30.06F
ALLENTOWN      MOCLDY    72  63  73 CALM      30.01F
QUAKERTOWN*    CLOUDY    68  64  88 CALM      30.04F
READING        CLEAR     70  61  73 SE5       30.00F
LANCASTER      CLEAR     65  62  90 E5        30.01F
COATESVILLE    MOSUNNY   66  66 100 CALM      30.04F
POTTSTOWN      CLOUDY    70  64  81 CALM      30.04F
BLUE BELL      CLOUDY    72  64  78 CALM      30.03S
DOYLESTOWN     CLOUDY    68  64  87 CALM      30.03S
WILLOW GROVE   NOT AVBL
NORTH PHILA    CLOUDY    72  63  73 SE3       30.04S
PHILADELPHIA   CLOUDY    71  64  78 SE3       30.02F
$$


USA.gov is the U.S. government's official web portal to all federal, state and local government web resources and services.